This is the latest recevied weather packets stored in our database for station/object DG0LHZ-10. If no packets are shown the sender has not sent any weather packets the latest 1 day(s).
| Time | Temp. | Humidity | Pressure | Rain* | Wind** | Luminosity | Snow |
|---|---|---|---|---|---|---|---|
| 1778372406 | 11.67° C | 45% | 1019 hPa | - | - | - | - |
| 1778371506 | 11.67° C | 45% | 1019 hPa | - | - | - | - |
| 1778370606 | 12.22° C | 45% | 1019.3 hPa | - | - | - | - |
| 1778369706 | 12.22° C | 45% | 1019.5 hPa | - | - | - | - |
| 1778368806 | 12.78° C | 45% | 1019.7 hPa | - | - | - | - |
| 1778367906 | 12.78° C | 45% | 1019.7 hPa | - | - | - | - |
| 1778367006 | 13.33° C | 45% | 1019.8 hPa | - | - | - | - |
| 1778366106 | 13.33° C | 45% | 1019.9 hPa | - | - | - | - |
| 1778365205 | 13.89° C | 44% | 1020 hPa | - | - | - | - |
| 1778364305 | 13.89° C | 44% | 1020 hPa | - | - | - | - |
| 1778363405 | 14.44° C | 44% | 1020.1 hPa | - | - | - | - |
| 1778362505 | 14.44° C | 44% | 1020.2 hPa | - | - | - | - |
| 1778361605 | 14.44° C | 43% | 1020.1 hPa | - | - | - | - |
| 1778360705 | 15° C | 43% | 1020.2 hPa | - | - | - | - |
| 1778359805 | 15° C | 43% | 1020.3 hPa | - | - | - | - |
| 1778358905 | 15.56° C | 42% | 1020.3 hPa | - | - | - | - |
| 1778358005 | 15.56° C | 42% | 1020.3 hPa | - | - | - | - |
| 1778357105 | 16.11° C | 42% | 1020.2 hPa | - | - | - | - |
| 1778356205 | 16.67° C | 41% | 1020.2 hPa | - | - | - | - |
| 1778355305 | 17.22° C | 41% | 1020.2 hPa | - | - | - | - |
| 1778354405 | 17.22° C | 40% | 1020.1 hPa | - | - | - | - |
| 1778353505 | 17.78° C | 41% | 1020.2 hPa | - | - | - | - |
| 1778352605 | 18.33° C | 40% | 1020.1 hPa | - | - | - | - |
| 1778351705 | 18.89° C | 40% | 1020.1 hPa | - | - | - | - |
| 1778350804 | 19.44° C | 40% | 1020 hPa | - | - | - | - |
* Rain since midnight (hover to see other rain measurements)
** Current wind speed in m/s (hover to see current wind gust speed)